Find Feng Yun 3B

NORAD ID: 37214 Int'l Des: 2010-059 Owner: NSMC Country: CN operational
LEOCIRCULARRETROGRADESSO

当前视图

正在加载3D地球...

About Feng Yun 3B

Feng Yun 3B (NORAD 37214) is a satellite launched Nov 4, 2010 by NSMC of CN. It operates in LEO, CIRCULAR, RETROGRADE, SSO orbit with a mass of 2200.00 kg.

即将过境

Passes for default location (London). Set your location on the main map for personalized predictions.

高度历史

Loading altitude history...

两行轨道根数

1 37214U 10059A 26195.61226355 .00000126 00000-0 88205-4 0 9991
2 37214 98.9611 241.7409 0023152 108.0372 9.8208 14.14847868811305
Epoch: Jul 14, 2026 • Age: 5 hours

当前状态

高度 843.1 km
远地点 / 近地点 N/A
速度 7.44 km/s
星下点 27.77°N, 14.07°E
发射日期 Nov 4, 2010
运行时间 15.6 years
类型 other

技术详情

分类 Payload
质量 2200.00 kg
干质量 2130.00 kg
总质量 2200.00 kg
长度 4.40 m
直径 2.00 m
跨度 10.00 m
形状 Box + 2 Pan
制造商 SISE
平台类型 FY-3
阶段状态 In Orbit
所有者/国家 NSMC/CN

Most Searched